Starlink 30421

operational
NORAD ID: 58107 Int'l Des: 2023-161 Owner: SPXS Country: US Constellation: starlink
LEOCIRCULAR

Starlink 30421について

説明を読み込み中...

リアルタイム位置

3D地球を読み込み中...

次回通過

高度履歴

Altitude vs Time

uPlot chart will show altitude changes over time

軌道要素

1 58107U 23161L 25347.55125314 -.00000067 00000-0 98803-5 0 9998
2 58107 53.1595 192.6516 0001191 100.8575 259.2560 15.30193644121413
Epoch: Dec 13, 2025 • Age: 19 hours

現在のステータス

高度 485.9 km
速度 7.62 km/s
衛星直下点 -32.18°S, 40.06°W
打ち上げ日 Oct 21, 2023
運用期間 2.1 years
タイプ internet

技術仕様

分類 Payload
質量 730.00 kg
乾燥質量 700.00 kg
総質量 730.00 kg
長さ 0.30 m
直径 4.10 m
スパン 29.00 m
形状 Box + pan
製造者 SPXS
バスタイプ Starlink V2M
フェーズステータス In Orbit
所有者/国 SPXS/US

大規模コンステレーション

Loading constellations...